User: anonymous   Login
Location: Melara
(45.0500°N, 11.1833°E)
Time: 19:17:31
(UTC+00:00)
Language:

M-CUBED/EXP-1 PRIME - Orbit

View from above orbital plane
View from above orbital plane
View from above satellite
View from above satellite

Ground track
Ground track

The orbit data is extracted from the following two-line orbital elements,

1 37855U 11061F   24147.41266040  .00247507  00000-0  14116-2 0  9998
2 37855 101.6872 319.9641 0035474  32.8288 327.5155 15.77293763690083
Epoch (UTC): 26 May 2024 09:54:13
Eccentricity: 0.0035474
inclination: 101.6872°
perigee height: 314 km
apogee height: 362 km
right ascension of ascending node: 319.9641°
argument of perigee: 32.8288°
revolutions per day: 15.77293763
mean anomaly at epoch: 327.5155°
orbit number at epoch: 69008

The dashed part of the orbit path shows where the satellite is in the earth's shadow,  

DLR